Regional Weather Roundup
Issued by NWS

Home | Current Version | Previous Version | Text Only | Print | Product List | Glossary On
Versions: 1 2 3 4 5 6 7 8 9 10 11 12 13 14 15 16 17 18 19 20 21 22 23 24 25 26 27 28 29 30 31 32 33 34 35 36 37 38 39 40 41 42 43 44 45 46 47 48 49 50
000
ASUS43 KOAX 261110
RWRNE

WEATHER ROUNDUP FOR NEBRASKA
NATIONAL WEATHER SERVICE OMAHA NE
600 AM CDT MON JUN 26 2017

NOTES: SATELLITE DATA IS BEING USED TO AUGMENT CLOUD COVER ABOVE
       12000 FEET.
       "FAIR" INDICATES FEW OR NO CLOUDS BELOW 12,000 FEET WITH NO
       SIGNIFICANT WEATHER AND/OR OBSTRUCTIONS TO VISIBILITY.

  * THESE STATIONS DO NOT REPORT WEATHER SUCH AS RAIN...SNOW OR FOG.

NEZ001>004-019>022-054>056-261200-
NEBRASKA PANHANDLE

CITY           SKY/WX    TMP DP  RH WIND       PRES   REMARKS
SCOTTSBLUFF    CLEAR     55  51  86 NE3       30.23
ALLIANCE       CLEAR     46  46 100 N3        30.23  FOG
CHADRON        CLEAR     41  37  86 CALM      30.25
GORDON         FAIR      44  39  83 NE3       30.24R
KIMBALL        CLEAR     53  53 100 W6        30.27S
SIDNEY         PTCLDY    53  52  96 W8        30.25
$$

NEZ057>060-069>072-079>082-261200-
SOUTHWEST NEBRASKA

CITY           SKY/WX    TMP DP  RH WIND       PRES   REMARKS
NORTH PLATTE   CLOUDY    59  58  96 S5        30.22
IMPERIAL       FOG       51  49  92 CALM      30.23  VSB 3/4
LEXINGTON      CLOUDY    61  57  87 SW10      30.22S
MCCOOK         CLOUDY    60  58  92 S7        30.23
OGALLALA       PTCLDY    52  51  95 NE5       30.22S
$$

NEZ005>010-023>029-035>040-094-261200-
NORTH CENTRAL NEBRASKA

CITY           SKY/WX    TMP DP  RH WIND       PRES   REMARKS
VALENTINE      CLEAR     54  41  61 NE9       30.22
AINSWORTH      CLEAR     47  46  93 NE5       30.21R
BROKEN BOW     CLOUDY    58  54  86 SW8       30.20
O`NEILL        PTCLDY    50  49  96 CALM      30.19R
ORD            PTCLDY    55  51  86 CALM      30.18
THEDFORD       PTCLDY    55  53  93 CALM      30.21S
$$

NEZ041-046>049-061>064-073>077-083>087-261200-
SOUTH CENTRAL NEBRASKA

CITY           SKY/WX    TMP DP  RH WIND       PRES   REMARKS
GRAND ISLAND   CLEAR     59  56  89 W8        30.21
AURORA         PTCLDY    57  54  89 W7        30.20R
HASTINGS       PTCLDY    56  52  86 W6        30.22
HEBRON         CLOUDY    58  55  88 CALM      30.21S
HOLDREGE       CLEAR     55  53  94 W5        30.23R
KEARNEY *      PTCLDY    57  52  82 W10       30.22S
YORK           CLOUDY    57  54  88 W7        30.20R
$$

NEZ011>018-030>034-042>045-261200-
NORTHEAST NEBRASKA

CITY           SKY/WX    TMP DP  RH WIND       PRES   REMARKS
NORFOLK        PTCLDY    54  47  77 SE7       30.18F
ALBION         PTCLDY    59  52  76 N6        30.19R
BLAIR          LGT RAIN  57  50  78 N9        30.21R
FREMONT        CLOUDY    55  51  85 E6        30.20F
TEKAMAH        LGT RAIN  56  53  90 CALM      30.18
WAYNE          CLEAR     53  53  99 CALM      30.19S
$$

NEZ050>053-065>068-078-088>093-261200-
SOUTHEAST NEBRASKA

CITY           SKY/WX    TMP DP  RH WIND       PRES   REMARKS
LINCOLN        CLOUDY    63  52  67 NW5       30.19
OMAHA EPPLEY   TSTM      58  50  75 N6        30.21
BEATRICE       MOCLDY    58  54  85 SW6       30.19S
FALLS CITY     CLOUDY    51  50  96 NE5       30.20
NEBRASKA CITY  CLOUDY    57  57  99 S6        30.20F THUNDER
PLATTSMOUTH    CLOUDY    56  52  86 CALM      30.19F
$$

NEZ044-045-051>053-067-261200-
OMAHA AREA

CITY           SKY/WX    TMP DP  RH WIND       PRES   REMARKS
OMAHA EPPLEY   TSTM      58  50  75 N6        30.21
BLAIR          LGT RAIN  57  50  78 N9        30.21R
FREMONT        CLOUDY    55  51  85 E6        30.20F
MILLARD        CLOUDY    63  53  70 CALM      30.20R
OFFUTT AFB     CLOUDY    58  54  85 N5        30.18F
PLATTSMOUTH    CLOUDY    56  52  86 CALM      30.19F
WAHOO          CLOUDY    59  49  70 NE6       30.20R
$$



USA.gov is the U.S. government's official web portal to all federal, state and local government web resources and services.